FW5908 Weather Reports


time (UTC)temp
C
wind
direction
speed
KPH
gust
KPH
rain 1hr
cm
rain 24hr
cm
rain mn
cm
humidity
%
barometer
mb
20260505100608 8 140 0.0 0.0 0.00 0.00 0.00 78 1012.3
20260505095607 8 140 0.0 0.0 0.00 0.00 0.00 76 1012.2
20260505094607 8 140 0.0 0.0 0.00 0.00 0.00 76 1012.3
20260505093608 8 140 0.0 0.0 0.00 0.00 0.00 77 1012.0
20260505092607 8 140 0.0 0.0 0.00 0.00 0.00 76 1011.7
20260505091608 8 140 0.0 0.0 0.00 0.00 0.00 76 1011.4
20260505090607 8 140 0.0 0.0 0.00 0.00 0.00 75 1011.1
20260505085607 8 140 0.0 1.6 0.00 0.00 0.00 72 1011.2
20260505084607 8 140 0.0 0.0 0.00 0.00 0.00 73 1011.1
20260505083607 8 140 0.0 0.0 0.00 0.00 0.00 73 1011.1
20260505082607 9 140 0.0 0.0 0.00 0.00 0.00 71 1010.8
20260505081607 9 140 0.0 0.0 0.00 0.00 0.00 69 1010.4
20260505080607 9 140 0.0 0.0 0.00 0.00 0.00 68 1010.1
20260505075607 9 140 0.0 0.0 0.00 0.00 0.00 68 1010.2
20260505074607 9 140 0.0 0.0 0.00 0.00 0.00 67 1010.3
20260505073607 9 140 0.0 0.0 0.00 0.00 0.00 67 1010.1
20260505072607 9 140 0.0 3.2 0.00 0.00 0.00 66 1010.1
20260505071607 10 140 0.0 0.0 0.00 0.00 0.00 66 1010.1
20260505070607 10 140 0.0 1.6 0.00 0.00 0.00 64 1010.1
20260505065607 10 140 0.0 3.2 0.00 0.00 0.00 64 1009.9
20260505064607 10 140 0.0 4.8 0.00 0.00 0.00 63 1009.9
20260505063607 10 182 0.0 3.2 0.00 0.00 0.00 62 1010.4
20260505062607 10 183 0.0 3.2 0.00 0.00 0.00 62 1010.5
20260505061607 10 151 3.2 4.8 0.00 0.00 0.00 61 1010.0
20260505060607 10 250 1.6 4.8 0.00 0.00 0.00 61 1010.3
20260505055607 10 348 0.0 4.8 0.00 0.00 0.00 61 1010.4
20260505054607 10 355 1.6 6.4 0.00 0.00 0.00 61 1010.0
20260505053607 10 164 1.6 8.0 0.00 0.00 0.00 61 1009.8
20260505052607 10 9 1.6 4.8 0.00 0.00 0.00 62 1010.1
20260505051607 10 101 1.6 4.8 0.00 0.00 0.00 60 1010.3
20260505050607 11 26 0.0 6.4 0.00 0.00 0.00 60 1009.8
20260505041607 12 142 1.6 8.0 0.00 0.00 0.00 46 1009.9
20260505040607 12 329 3.2 9.7 0.00 0.00 0.00 46 1009.5
20260505035607 13 317 1.6 4.8 0.00 0.00 0.00 47 1009.7
20260505034607 13 38 1.6 4.8 0.00 0.00 0.00 47 1009.5
20260505033607 13 90 1.6 16.1 0.00 0.00 0.00 46 1009.1
20260505032607 13 328 1.6 9.7 0.00 0.00 0.00 46 1009.4
20260505031607 13 360 3.2 9.7 0.00 0.00 0.00 45 1009.1
20260505030606 13 303 1.6 17.7 0.00 0.00 0.00 46 1009.0
20260505025607 13 73 3.2 8.0 0.00 0.00 0.00 46 1009.0
20260505024606 13 132 4.8 12.9 0.00 0.00 0.00 45 1008.0
20260505023606 14 69 1.6 14.5 0.00 0.00 0.00 45 1007.7
20260505022607 14 318 8.0 12.9 0.00 0.00 0.00 44 1007.6
20260505021606 15 331 8.0 12.9 0.00 0.00 0.00 44 1007.9
20260505020606 15 309 3.2 16.1 0.00 0.00 0.00 43 1007.7
20260505015606 16 24 1.6 14.5 0.00 0.00 0.00 42 1007.5
20260505014606 16 63 6.4 16.1 0.00 0.00 0.00 41 1006.9
20260505013606 16 349 3.2 12.9 0.00 0.00 0.00 39 1006.9
20260505012606 17 265 6.4 14.5 0.00 0.00 0.00 38 1006.8
20260505011606 17 97 4.8 14.5 0.00 0.00 0.00 37 1006.5
20260505010606 18 15 3.2 9.7 0.00 0.00 0.00 37 1006.2
20260505005607 19 50 0.0 16.1 0.00 0.00 0.00 37 1006.2
20260505004606 20 67 0.0 6.4 0.00 0.00 0.00 38 1005.7
20260505003606 20 50 0.0 6.4 0.00 0.00 0.00 37 1005.5
20260505002606 20 13 1.6 6.4 0.00 0.00 0.00 36 1005.5
20260505001606 21 82 3.2 9.7 0.00 0.00 0.00 35 1005.5
20260505000606 21 34 0.0 12.9 0.00 0.00 0.00 34 1005.5
20260504235606 22 74 1.6 14.5 0.00 0.00 0.00 33 1005.3
20260504234606 22 327 3.2 6.4 0.00 0.00 0.00 33 1005.2
20260504233606 22 317 1.6 12.9 0.00 0.00 0.00 32 1005.0
20260504232606 23 139 1.6 9.7 0.00 0.00 0.00 31 1005.0
20260504231606 23 119 4.8 17.7 0.00 0.00 0.00 33 1004.8
20260504230606 23 23 1.6 12.9 0.00 0.00 0.00 32 1004.5
20260504225606 24 24 1.6 8.0 0.00 0.00 0.00 31 1004.2
20260504224606 25 44 1.6 9.7 0.00 0.00 0.00 31 1004.1
20260504223606 25 99 1.6 6.4 0.00 0.00 0.00 34 1003.7
20260504222606 25 19 1.6 9.7 0.00 0.00 0.00 32 1003.8
20260504221606 25 360 0.0 12.9 0.00 0.00 0.00 32 1003.6
20260504220606 25 360 4.8 4.8 0.00 0.00 0.00 34 1003.4
20260504215606 26 51 3.2 9.7 0.00 0.00 0.00 33 1003.3
20260504214606 26 275 0.0 9.7 0.00 0.00 0.00 32 1003.3
20260504213606 26 153 1.6 6.4 0.00 0.00 0.00 33 1003.2
20260504212606 26 360 4.8 9.7 0.00 0.00 0.00 33 1003.1
20260504211605 27 134 4.8 6.4 0.00 0.00 0.00 35 1002.9
20260504210606 27 334 0.0 8.0 0.00 0.00 0.00 34 1002.9
20260504205606 27 325 0.0 6.4 0.00 0.00 0.00 36 1002.7
20260504204606 28 360 1.6 14.5 0.00 0.00 0.00 35 1002.7
20260504203605 28 319 1.6 8.0 0.00 0.00 0.00 34 1002.6
20260504202605 28 344 1.6 6.4 0.00 0.00 0.00 33 1002.7
20260504201605 28 40 1.6 11.3 0.00 0.00 0.00 33 1002.7
20260504200605 28 292 1.6 17.7 0.00 0.00 0.00 30 1002.6
20260504195606 29 44 3.2 9.7 0.00 0.00 0.00 32 1002.6
20260504194606 28 16 1.6 6.4 0.00 0.00 0.00 32 1002.5
20260504193605 28 262 4.8 9.7 0.00 0.00 0.00 29 1002.6
20260504192605 28 103 1.6 11.3 0.00 0.00 0.00 33 1002.5
20260504191605 28 292 8.0 12.9 0.00 0.00 0.00 30 1002.3
20260504190605 28 299 4.8 12.9 0.00 0.00 0.00 29 1002.5
20260504185605 28 275 4.8 11.3 0.00 0.00 0.00 29 1002.4
20260504184605 28 291 6.4 12.9 0.00 0.00 0.00 32 1002.4
20260504183605 27 22 6.4 14.5 0.00 0.00 0.00 31 1002.5
20260504182605 27 327 4.8 16.1 0.00 0.00 0.00 35 1002.7
20260504181605 27 261 3.2 6.4 0.00 0.00 0.00 32 1002.7
20260504180605 26 211 4.8 12.9 0.00 0.00 0.00 36 1002.9
20260504175605 27 304 3.2 16.1 0.00 0.00 0.00 34 1003.0
20260504174605 26 284 0.0 4.8 0.00 0.00 0.00 39 1003.2
20260504173605 26 286 0.0 17.7 0.00 0.00 0.00 36 1003.2
20260504172605 26 280 6.4 12.9 0.00 0.00 0.00 35 1003.3
20260504171605 26 277 1.6 6.4 0.00 0.00 0.00 39 1003.3
20260504170605 25 16 1.6 11.3 0.00 0.00 0.00 41 1003.3
20260504150605 18 20 3.2 4.8 0.00 0.00 0.00 52 1003.5
20260504140605 16 313 0.0 6.4 0.00 0.00 0.00 59 1003.9
20260504130604 12 251 0.0 0.0 0.00 0.00 0.00 69 1003.5
20260504110604 12 223 0.0 0.0 0.00 0.00 0.00 59 1003.4